Location: Unspecified
(41.5000°N, 0.0000°E)
Time: 14:43:48
(UTC+00:00)

Vanguard 1 - Pass Details

Date: 22 June 2019
Orbit: 655 x 3829 km, 34.2° (Epoch: 19 August)

Event Time Altitude Azimuth Distance (km) Brightness Sun altitude
Exits shadow 23:19:45 20° 136° (SE) 5,481 13.3 -24.3°
Drops below altitude 10° 23:29:23 10° 102° (ESE) 5,565 13.7 -24.6°
Sets 23:34:38 0° 87° (E) 6,065 14.1 -24.8°
